^^
Saratoga-Weather Station Historical Data
Daily Summary for June 19, 2020 Units:  Metric    English   Both
Daily Weekly Monthly Yearly Custom
  High: Low: Average:
Temperature: 22.4 °C 13.1 °C 18.1 °C
Dew Point: 14.1 °C 10.4 °C 12.4 °C
Humidity: 88% 51% 70%
Wind Speed: 17.7km/h 0km/h 5.4km/h
Wind Gust: 24.1km/h - -
Wind- - West
Pressure: 1018.6 hPa 1013.9 hPa -
Precipitation: 0.0 mm    
Historical Graphs
 
 
Tabular Data for June 19, 2020
Time Temperature Dew Point Pressure Wind Wind Speed Wind Gust Humidity Rainfall Rate (Hourly) solar
00:00 15.6 °C 12.4 °C 1013.9 hPa ENE 1.4 km/h 6.4 km/h 81% 0.0 mm 0 W/m2
00:05 15.6 °C 12.4 °C 1013.9 hPa West 4.7 km/h 6.4 km/h 81% 0.0 mm 0 W/m2
00:10 15.6 °C 12.2 °C 1013.9 hPa WSW 3.2 km/h 4.8 km/h 80% 0.0 mm 0 W/m2
00:15 15.6 °C 12.4 °C 1013.9 hPa West 1.4 km/h 9.7 km/h 81% 0.0 mm 0 W/m2
00:20 15.6 °C 12.4 °C 1013.9 hPa West 1.4 km/h 6.4 km/h 81% 0.0 mm 0 W/m2
00:25 15.5 °C 12.3 °C 1013.9 hPa WSW 3.2 km/h 4.8 km/h 81% 0.0 mm 0 W/m2
00:30 15.5 °C 12.3 °C 1013.9 hPa SW 6.4 km/h 6.4 km/h 81% 0.0 mm 0 W/m2
00:35 15.6 °C 12.2 °C 1013.9 hPa Calm   3.2 km/h 80% 0.0 mm 0 W/m2
00:40 15.6 °C 12.2 °C 1013.9 hPa West 3.2 km/h 8 km/h 80% 0.0 mm 0 W/m2
00:45 15.7 °C 12.1 °C 1013.9 hPa West 3.2 km/h 9.7 km/h 79% 0.0 mm 0 W/m2
00:50 15.8 °C 12 °C 1014.2 hPa WSW 4.7 km/h 6.4 km/h 78% 0.0 mm 0 W/m2
00:55 15.8 °C 12 °C 1014.2 hPa WSW 7.9 km/h 12.9 km/h 78% 0.0 mm 0 W/m2
01:00 15.8 °C 11.8 °C 1014.2 hPa NW 6.4 km/h 6.4 km/h 77% 0.0 mm 0 W/m2
01:05 15.8 °C 11.8 °C 1014.2 hPa WSW 4.7 km/h 9.7 km/h 77% 0.0 mm 0 W/m2
01:10 15.9 °C 11.9 °C 1014.2 hPa WNW 3.2 km/h 6.4 km/h 77% 0.0 mm 0 W/m2
01:15 15.9 °C 11.9 °C 1014.2 hPa WNW 11.1 km/h 11.3 km/h 77% 0.0 mm 0 W/m2
01:20 15.9 °C 11.9 °C 1014.2 hPa West 3.2 km/h 4.8 km/h 77% 0.0 mm 0 W/m2
01:25 15.8 °C 11.8 °C 1014.2 hPa WNW 6.4 km/h 9.7 km/h 77% 0.0 mm 0 W/m2
01:30 15.8 °C 11.8 °C 1014.2 hPa West 6.4 km/h 9.7 km/h 77% 0.0 mm 0 W/m2
01:35 15.8 °C 11.8 °C 1014.2 hPa West 3.2 km/h 11.3 km/h 77% 0.0 mm 0 W/m2
01:40 15.8 °C 11.8 °C 1014.2 hPa WSW 3.2 km/h 11.3 km/h 77% 0.0 mm 0 W/m2
01:45 15.9 °C 11.9 °C 1014.2 hPa West 3.2 km/h 4.8 km/h 77% 0.0 mm 0 W/m2
01:50 15.9 °C 11.9 °C 1014.2 hPa NW 3.2 km/h 6.4 km/h 77% 0.0 mm 0 W/m2
01:55 15.9 °C 11.7 °C 1014.2 hPa West 3.2 km/h 11.3 km/h 76% 0.0 mm 0 W/m2
02:00 15.9 °C 11.7 °C 1014.2 hPa WNW 3.2 km/h 12.9 km/h 76% 0.0 mm 0 W/m2
02:05 15.9 °C 11.9 °C 1014.2 hPa NW 6.4 km/h 11.3 km/h 77% 0.0 mm 0 W/m2
02:10 15.8 °C 11.8 °C 1014.2 hPa West 9.7 km/h 11.3 km/h 77% 0.0 mm 0 W/m2
02:15 15.8 °C 11.8 °C 1014.2 hPa NW 3.2 km/h 11.3 km/h 77% 0.0 mm 0 W/m2
02:20 15.7 °C 11.9 °C 1014.2 hPa WNW 3.2 km/h 9.7 km/h 78% 0.0 mm 0 W/m2
02:25 15.6 °C 11.8 °C 1014.2 hPa West 9.7 km/h 9.7 km/h 78% 0.0 mm 0 W/m2
02:30 15.4 °C 11.8 °C 1014.2 hPa WNW 3.2 km/h 9.7 km/h 79% 0.0 mm 0 W/m2
02:35 15.3 °C 11.9 °C 1014.2 hPa WNW 14.3 km/h 14.5 km/h 80% 0.0 mm 0 W/m2
02:40 15.3 °C 11.9 °C 1014.2 hPa SSW 4.7 km/h 9.7 km/h 80% 0.0 mm 0 W/m2
02:45 15.3 °C 11.9 °C 1014.2 hPa West 1.4 km/h 9.7 km/h 80% 0.0 mm 0 W/m2
02:51 15.2 °C 11.8 °C 1014.2 hPa West 4.7 km/h 12.9 km/h 80% 0.0 mm 0 W/m2
02:56 15.1 °C 11.9 °C 1014.2 hPa WSW 7.9 km/h 8 km/h 81% 0.0 mm 0 W/m2
03:01 15.1 °C 11.9 °C 1014.2 hPa West 4.7 km/h 6.4 km/h 81% 0.0 mm 0 W/m2
03:11 14.9 °C 11.7 °C 1014.2 hPa WSW 6.4 km/h 9.7 km/h 81% 0.0 mm 0 W/m2
03:16 14.9 °C 11.7 °C 1014.2 hPa West 4.7 km/h 12.9 km/h 81% 0.0 mm 0 W/m2
03:21 14.9 °C 11.5 °C 1014.2 hPa West 3.2 km/h 6.4 km/h 80% 0.0 mm 0 W/m2
03:26 14.8 °C 11.6 °C 1014.2 hPa West 3.2 km/h 11.3 km/h 81% 0.0 mm 0 W/m2
03:32 14.8 °C 11.6 °C 1014.2 hPa West 3.2 km/h 16.1 km/h 81% 0.0 mm 0 W/m2
03:37 14.7 °C 11.5 °C 1014.2 hPa West 6.4 km/h 9.7 km/h 81% 0.0 mm 0 W/m2
03:42 14.6 °C 11.6 °C 1014.2 hPa WNW 4.7 km/h 16.1 km/h 82% 0.0 mm 0 W/m2
03:47 14.5 °C 11.5 °C 1014.6 hPa WNW 6.4 km/h 6.4 km/h 82% 0.0 mm 0 W/m2
03:52 14.4 °C 11.4 °C 1014.2 hPa WNW 6.4 km/h 14.5 km/h 82% 0.0 mm 0 W/m2
03:57 14.3 °C 11.3 °C 1014.2 hPa WNW 1.4 km/h 4.8 km/h 82% 0.0 mm 0 W/m2
04:02 14.2 °C 11.4 °C 1014.2 hPa West 1.4 km/h 11.3 km/h 83% 0.0 mm 0 W/m2
04:07 14.2 °C 11.4 °C 1014.6 hPa West 6.4 km/h 8 km/h 83% 0.0 mm 0 W/m2
04:12 14.1 °C 11.3 °C 1014.6 hPa West 3.2 km/h 14.5 km/h 83% 0.0 mm 0 W/m2
04:17 13.9 °C 11.1 °C 1014.6 hPa WSW 3.2 km/h 3.2 km/h 83% 0.0 mm 0 W/m2
04:22 13.9 °C 11.2 °C 1014.6 hPa West 3.2 km/h 11.3 km/h 84% 0.0 mm 0 W/m2
04:27 13.8 °C 11.1 °C 1014.6 hPa West 3.2 km/h 4.8 km/h 84% 0.0 mm 0 W/m2
04:32 13.8 °C 11.1 °C 1014.6 hPa West 3.2 km/h 4.8 km/h 84% 0.0 mm 0 W/m2
04:37 13.7 °C 11 °C 1014.6 hPa WNW 3.2 km/h 4.8 km/h 84% 0.0 mm 0 W/m2
04:42 13.7 °C 11 °C 1014.6 hPa WNW 3.2 km/h 4.8 km/h 84% 0.0 mm 0 W/m2
04:47 13.6 °C 11.1 °C 1014.6 hPa West 3.2 km/h 6.4 km/h 85% 0.0 mm 0 W/m2
04:52 13.6 °C 11.1 °C 1014.6 hPa West 4.7 km/h 4.8 km/h 85% 0.0 mm 0 W/m2
04:57 13.6 °C 11.1 °C 1014.6 hPa WNW 4.7 km/h 6.4 km/h 85% 0.0 mm 0 W/m2
05:02 13.6 °C 11.1 °C 1014.6 hPa WSW 6.4 km/h 9.7 km/h 85% 0.0 mm 0 W/m2
05:07 13.6 °C 11.1 °C 1014.6 hPa SW 7.9 km/h 11.3 km/h 85% 0.0 mm 0 W/m2
05:12 13.6 °C 11.1 °C 1014.6 hPa West 6.4 km/h 11.3 km/h 85% 0.0 mm 0 W/m2
05:17 13.6 °C 11.1 °C 1014.6 hPa West 9.7 km/h 12.9 km/h 85% 0.0 mm 0 W/m2
05:22 13.6 °C 11.1 °C 1014.6 hPa WNW 3.2 km/h 11.3 km/h 85% 0.0 mm 0 W/m2
05:27 13.5 °C 11 °C 1014.6 hPa WNW 3.2 km/h 9.7 km/h 85% 0.0 mm 0 W/m2
05:32 13.4 °C 10.9 °C 1014.6 hPa West 3.2 km/h 9.7 km/h 85% 0.0 mm 5 W/m2
05:37 13.4 °C 10.9 °C 1014.6 hPa West 3.2 km/h 11.3 km/h 85% 0.0 mm 5 W/m2
05:42 13.4 °C 10.9 °C 1014.6 hPa WSW 13 km/h 14.5 km/h 85% 0.0 mm 9 W/m2
05:47 13.4 °C 10.9 °C 1014.6 hPa WSW 4.7 km/h 6.4 km/h 85% 0.0 mm 12 W/m2
05:52 13.3 °C 11 °C 1014.6 hPa West 4.7 km/h 14.5 km/h 86% 0.0 mm 16 W/m2
05:57 13.3 °C 11 °C 1014.6 hPa West 3.2 km/h 6.4 km/h 86% 0.0 mm 19 W/m2
06:02 13.2 °C 10.9 °C 1014.6 hPa West 9.7 km/h 9.7 km/h 86% 0.0 mm 23 W/m2
06:07 13.2 °C 10.9 °C 1014.9 hPa West 3.2 km/h 9.7 km/h 86% 0.0 mm 25 W/m2
06:13 13.3 °C 11 °C 1014.6 hPa Calm   4.8 km/h 86% 0.0 mm 25 W/m2
06:18 13.4 °C 11.1 °C 1014.6 hPa Calm   8 km/h 86% 0.0 mm 26 W/m2
06:23 13.4 °C 11.1 °C 1014.9 hPa Calm     86% 0.0 mm 28 W/m2
06:28 13.4 °C 11.1 °C 1014.9 hPa West 1.4 km/h 4.8 km/h 86% 0.0 mm 33 W/m2
06:33 13.4 °C 11.1 °C 1014.9 hPa ESE 4.7 km/h 6.4 km/h 86% 0.0 mm 42 W/m2
06:38 13.3 °C 11 °C 1014.9 hPa ENE 3.2 km/h 4.8 km/h 86% 0.0 mm 46 W/m2
06:43 13.2 °C 11.1 °C 1014.9 hPa Calm     87% 0.0 mm 44 W/m2
06:48 13.2 °C 11.1 °C 1014.9 hPa Calm   1.6 km/h 87% 0.0 mm 46 W/m2
06:53 13.1 °C 11.2 °C 1015.2 hPa Calm     88% 0.0 mm 46 W/m2
06:58 13.2 °C 11.3 °C 1015.2 hPa ENE 1.4 km/h 1.6 km/h 88% 0.0 mm 49 W/m2
07:03 13.2 °C 11.3 °C 1015.2 hPa ENE 1.4 km/h 3.2 km/h 88% 0.0 mm 51 W/m2
07:08 13.2 °C 11.3 °C 1015.2 hPa East 4.7 km/h 4.8 km/h 88% 0.0 mm 54 W/m2
07:13 13.3 °C 11.4 °C 1015.2 hPa East 1.4 km/h 3.2 km/h 88% 0.0 mm 62 W/m2
07:18 13.4 °C 11.5 °C 1015.2 hPa Calm   1.6 km/h 88% 0.0 mm 69 W/m2
07:23 13.5 °C 11.4 °C 1015.6 hPa Calm   3.2 km/h 87% 0.0 mm 77 W/m2
07:28 13.7 °C 11.6 °C 1015.6 hPa Calm   4.8 km/h 87% 0.0 mm 79 W/m2
07:33 13.8 °C 11.7 °C 1015.6 hPa West 1.4 km/h 4.8 km/h 87% 0.0 mm 86 W/m2
07:38 14.1 °C 12 °C 1015.6 hPa Calm   12.9 km/h 87% 0.0 mm 114 W/m2
07:43 14.3 °C 12 °C 1015.6 hPa NW 3.2 km/h 6.4 km/h 86% 0.0 mm 207 W/m2
07:48 14.6 °C 12.3 °C 1015.6 hPa Calm   12.9 km/h 86% 0.0 mm 195 W/m2
07:53 14.7 °C 12.2 °C 1015.6 hPa West 11.1 km/h 12.9 km/h 85% 0.0 mm 221 W/m2
07:58 14.9 °C 12.4 °C 1015.6 hPa WSW 4.7 km/h 12.9 km/h 85% 0.0 mm 251 W/m2
08:03 15.2 °C 12.7 °C 1015.6 hPa WSW 6.4 km/h 11.3 km/h 85% 0.0 mm 332 W/m2
08:08 15.4 °C 12.7 °C 1015.6 hPa NW 3.2 km/h 12.9 km/h 84% 0.0 mm 339 W/m2
08:13 15.7 °C 12.8 °C 1015.6 hPa Calm   4.8 km/h 83% 0.0 mm 329 W/m2
08:18 16.1 °C 13 °C 1015.6 hPa West 3.2 km/h 11.3 km/h 82% 0.0 mm 339 W/m2
08:23 16.3 °C 13 °C 1015.6 hPa NW 4.7 km/h 9.7 km/h 81% 0.0 mm 359 W/m2
08:28 16.4 °C 12.9 °C 1015.6 hPa WSW 6.4 km/h 9.7 km/h 80% 0.0 mm 371 W/m2
08:33 16.6 °C 12.9 °C 1015.6 hPa West 9.7 km/h 16.1 km/h 79% 0.0 mm 364 W/m2
08:38 16.7 °C 13 °C 1015.6 hPa West 6.4 km/h 14.5 km/h 79% 0.0 mm 378 W/m2
08:44 16.8 °C 13.1 °C 1015.6 hPa WNW 6.4 km/h 16.1 km/h 79% 0.0 mm 406 W/m2
08:49 16.8 °C 12.9 °C 1015.6 hPa NNW 9.7 km/h 12.9 km/h 78% 0.0 mm 366 W/m2
08:57 16.7 °C 13 °C 1015.6 hPa West 3.2 km/h 8 km/h 79% 0.0 mm 329 W/m2
09:02 16.9 °C 13.2 °C 1015.9 hPa East 6.4 km/h 6.4 km/h 79% 0.0 mm 316 W/m2
09:07 17 °C 13.3 °C 1015.9 hPa SSW 4.7 km/h 9.7 km/h 79% 0.0 mm 304 W/m2
09:12 16.9 °C 13.2 °C 1015.9 hPa NNW 6.4 km/h 6.4 km/h 79% 0.0 mm 403 W/m2
09:17 17.1 °C 13.4 °C 1015.9 hPa WNW 4.7 km/h 6.4 km/h 79% 0.0 mm 374 W/m2
09:22 17.2 °C 13.5 °C 1015.9 hPa WNW 7.9 km/h 8 km/h 79% 0.0 mm 410 W/m2
09:27 17.3 °C 13.4 °C 1015.9 hPa Calm   6.4 km/h 78% 0.0 mm 381 W/m2
09:32 17.4 °C 13.5 °C 1015.9 hPa West 6.4 km/h 6.4 km/h 78% 0.0 mm 394 W/m2
09:37 17.5 °C 13.6 °C 1015.9 hPa West 3.2 km/h 4.8 km/h 78% 0.0 mm 417 W/m2
09:42 17.6 °C 13.5 °C 1015.9 hPa West 4.7 km/h 8 km/h 77% 0.0 mm 471 W/m2
09:47 17.7 °C 13.8 °C 1015.9 hPa Calm   4.8 km/h 78% 0.0 mm 480 W/m2
09:52 17.9 °C 13.6 °C 1015.9 hPa NNW 4.7 km/h 4.8 km/h 76% 0.0 mm 429 W/m2
09:57 17.9 °C 13.4 °C 1015.9 hPa NW 6.4 km/h 11.3 km/h 75% 0.0 mm 232 W/m2
10:02 17.9 °C 13.2 °C 1015.9 hPa WNW 11.1 km/h 12.9 km/h 74% 0.0 mm 480 W/m2
10:07 17.9 °C 13.4 °C 1015.9 hPa West 3.2 km/h 9.7 km/h 75% 0.0 mm 443 W/m2
10:12 18.1 °C 13.6 °C 1015.9 hPa NW 3.2 km/h 11.3 km/h 75% 0.0 mm 267 W/m2
10:17 18.2 °C 13.5 °C 1015.9 hPa West 6.4 km/h 11.3 km/h 74% 0.0 mm 448 W/m2
10:22 18.2 °C 13.7 °C 1015.9 hPa NW 6.4 km/h 6.4 km/h 75% 0.0 mm 564 W/m2
10:27 18.4 °C 13.7 °C 1015.9 hPa NW 4.7 km/h 12.9 km/h 74% 0.0 mm 573 W/m2
10:32 18.5 °C 13.8 °C 1015.9 hPa ENE 1.4 km/h 3.2 km/h 74% 0.0 mm 589 W/m2
10:37 18.9 °C 14 °C 1015.9 hPa WSW 7.9 km/h 11.3 km/h 73% 0.0 mm 663 W/m2
10:42 18.9 °C 13.7 °C 1015.9 hPa WNW 11.1 km/h 14.5 km/h 72% 0.0 mm 668 W/m2
10:47 18.9 °C 13.7 °C 1016.3 hPa West 4.7 km/h 11.3 km/h 72% 0.0 mm 675 W/m2
10:52 19 °C 13.6 °C 1015.9 hPa NNW 4.7 km/h 8 km/h 71% 0.0 mm 610 W/m2
10:57 19.1 °C 13.7 °C 1016.3 hPa West 13 km/h 12.9 km/h 71% 0.0 mm 633 W/m2
11:02 19.2 °C 13.6 °C 1016.3 hPa WSW 6.4 km/h 9.7 km/h 70% 0.0 mm 610 W/m2
11:07 19.1 °C 13.3 °C 1016.3 hPa SW 9.7 km/h 14.5 km/h 69% 0.0 mm 269 W/m2
11:12 18.9 °C 13.1 °C 1016.3 hPa West 11.1 km/h 11.3 km/h 69% 0.0 mm 613 W/m2
11:17 18.9 °C 13.3 °C 1016.3 hPa NW 6.4 km/h 14.5 km/h 70% 0.0 mm 659 W/m2
11:22 19 °C 13.2 °C 1016.3 hPa NW 6.4 km/h 14.5 km/h 69% 0.0 mm 773 W/m2
11:27 19.1 °C 13.3 °C 1016.3 hPa WNW 4.7 km/h 8 km/h 69% 0.0 mm 747 W/m2
11:32 19.2 °C 13.6 °C 1016.3 hPa Calm   6.4 km/h 70% 0.0 mm 366 W/m2
11:37 19.4 °C 13.3 °C 1016.3 hPa WSW 14.3 km/h 14.5 km/h 68% 0.0 mm 770 W/m2
11:42 19.6 °C 13.8 °C 1016.3 hPa NW 1.4 km/h 4.8 km/h 69% 0.0 mm 849 W/m2
11:47 19.7 °C 13.2 °C 1016.3 hPa WSW 7.9 km/h 16.1 km/h 66% 0.0 mm 886 W/m2
11:52 19.8 °C 13.5 °C 1016.3 hPa WSW 7.9 km/h 11.3 km/h 67% 0.0 mm 373 W/m2
11:57 19.7 °C 13.2 °C 1016.3 hPa NW 3.2 km/h 14.5 km/h 66% 0.0 mm 237 W/m2
12:02 19.3 °C 13 °C 1016.3 hPa WNW 6.4 km/h 8 km/h 67% 0.0 mm 213 W/m2
12:07 19.4 °C 13.6 °C 1016.3 hPa NW 4.7 km/h 14.5 km/h 69% 0.0 mm 970 W/m2
12:17 19.8 °C 13.5 °C 1016.6 hPa WSW 11.1 km/h 11.3 km/h 67% 0.0 mm 907 W/m2
12:22 19.9 °C 13.8 °C 1016.3 hPa West 3.2 km/h 6.4 km/h 68% 0.0 mm 891 W/m2
12:27 20.2 °C 14.1 °C 1016.3 hPa SW 1.4 km/h 4.8 km/h 68% 0.0 mm 937 W/m2
12:32 20.4 °C 13.1 °C 1016.6 hPa WSW 13 km/h 16.1 km/h 63% 0.0 mm 911 W/m2
12:37 20.4 °C 13.1 °C 1016.6 hPa WNW 13 km/h 16.1 km/h 63% 0.0 mm 984 W/m2
12:42 20.4 °C 13.6 °C 1016.3 hPa North 6.4 km/h 9.7 km/h 65% 0.0 mm 1002 W/m2
12:47 20.6 °C 13.1 °C 1016.3 hPa NW 7.9 km/h 16.1 km/h 62% 0.0 mm 396 W/m2
12:52 20.2 °C 13.2 °C 1016.6 hPa West 6.4 km/h 12.9 km/h 64% 0.0 mm 188 W/m2
12:57 19.7 °C 12.9 °C 1016.6 hPa WSW 17.7 km/h 20.9 km/h 65% 0.0 mm 165 W/m2
13:02 19.3 °C 12.6 °C 1016.6 hPa NNW 7.9 km/h 12.9 km/h 65% 0.0 mm 171 W/m2
13:07 19.3 °C 12.6 °C 1016.6 hPa WNW 3.2 km/h 9.7 km/h 65% 0.0 mm 234 W/m2
13:12 19.3 °C 12.8 °C 1016.6 hPa NW 6.4 km/h 17.7 km/h 66% 0.0 mm 264 W/m2
13:17 19.2 °C 12.9 °C 1016.6 hPa WNW 3.2 km/h 12.9 km/h 67% 0.0 mm 301 W/m2
13:22 19.3 °C 13 °C 1016.6 hPa WNW 4.7 km/h 16.1 km/h 67% 0.0 mm 404 W/m2
13:27 19.7 °C 13.4 °C 1016.6 hPa NW 6.4 km/h 14.5 km/h 67% 0.0 mm 1014 W/m2
13:33 20.2 °C 12.9 °C 1016.6 hPa West 9.7 km/h 16.1 km/h 63% 0.0 mm 1051 W/m2
13:38 20.4 °C 12.9 °C 1016.6 hPa WNW 13 km/h 16.1 km/h 62% 0.0 mm 1088 W/m2
13:43 20.3 °C 13 °C 1016.6 hPa West 11.1 km/h 16.1 km/h 63% 0.0 mm 638 W/m2
13:48 20.1 °C 12.8 °C 1016.6 hPa West 13 km/h 17.7 km/h 63% 0.0 mm 385 W/m2
13:53 19.9 °C 13.1 °C 1016.6 hPa NW 7.9 km/h 12.9 km/h 65% 0.0 mm 385 W/m2
13:58 19.9 °C 13.1 °C 1016.6 hPa WSW 7.9 km/h 11.3 km/h 65% 0.0 mm 545 W/m2
14:03 20 °C 13.2 °C 1016.6 hPa West 3.2 km/h 16.1 km/h 65% 0.0 mm 696 W/m2
14:08 20.4 °C 13.4 °C 1016.6 hPa West 4.7 km/h 12.9 km/h 64% 0.0 mm 612 W/m2
14:13 20.7 °C 13.9 °C 1016.3 hPa NW 6.4 km/h 12.9 km/h 65% 0.0 mm 371 W/m2
14:18 20.8 °C 13.7 °C 1016.6 hPa WSW 6.4 km/h 19.3 km/h 64% 0.0 mm 1097 W/m2
14:23 21.1 °C 13.8 °C 1016.6 hPa WNW 4.7 km/h 11.3 km/h 63% 0.0 mm 1137 W/m2
14:28 20.8 °C 13.3 °C 1016.6 hPa West 11.1 km/h 17.7 km/h 62% 0.0 mm 508 W/m2
14:33 20.9 °C 13.6 °C 1016.6 hPa WSW 9.7 km/h 12.9 km/h 63% 0.0 mm 956 W/m2
14:38 20.9 °C 13.3 °C 1016.6 hPa WNW 9.7 km/h 14.5 km/h 62% 0.0 mm 956 W/m2
14:43 21 °C 13.9 °C 1016.6 hPa NNW 9.7 km/h 19.3 km/h 64% 0.0 mm 918 W/m2
14:48 21.2 °C 13.9 °C 1016.6 hPa WSW 16.3 km/h 16.1 km/h 63% 0.0 mm 798 W/m2
14:53 21.2 °C 13.6 °C 1016.6 hPa WNW 13 km/h 20.9 km/h 62% 0.0 mm 963 W/m2
14:58 21.2 °C 13.4 °C 1016.6 hPa West 6.4 km/h 17.7 km/h 61% 0.0 mm 1039 W/m2
15:03 20.7 °C 12.9 °C 1016.6 hPa WSW 7.9 km/h 14.5 km/h 61% 0.0 mm 499 W/m2
15:08 20.8 °C 13.5 °C 1016.3 hPa WNW 4.7 km/h 6.4 km/h 63% 0.0 mm 976 W/m2
15:13 21.2 °C 13.6 °C 1016.3 hPa WNW 6.4 km/h 9.7 km/h 62% 0.0 mm 1085 W/m2
15:18 21.5 °C 13.1 °C 1016.6 hPa WNW 3.2 km/h 8 km/h 59% 0.0 mm 1058 W/m2
15:23 21.7 °C 13.6 °C 1016.3 hPa WNW 6.4 km/h 6.4 km/h 60% 0.0 mm 557 W/m2
15:28 21.8 °C 13.4 °C 1016.6 hPa West 11.1 km/h 16.1 km/h 59% 0.0 mm 622 W/m2
15:33 21.5 °C 12.6 °C 1016.3 hPa West 9.7 km/h 17.7 km/h 57% 0.0 mm 991 W/m2
15:38 21.7 °C 13.3 °C 1016.3 hPa WNW 1.4 km/h 11.3 km/h 59% 0.0 mm 735 W/m2
15:43 22.2 °C 13.3 °C 1016.3 hPa NNW 9.7 km/h 17.7 km/h 57% 0.0 mm 977 W/m2
15:48 22.1 °C 13.2 °C 1016.3 hPa WNW 4.7 km/h 16.1 km/h 57% 0.0 mm 977 W/m2
15:53 22.2 °C 13.8 °C 1016.3 hPa WNW 9.7 km/h 19.3 km/h 59% 0.0 mm 893 W/m2
15:58 22.1 °C 13.2 °C 1016.3 hPa WNW 9.7 km/h 14.5 km/h 57% 0.0 mm 132 W/m2
16:03 21.6 °C 13 °C 1016.3 hPa NW 1.4 km/h 6.4 km/h 58% 0.0 mm 218 W/m2
16:08 21.3 °C 13.2 °C 1016.3 hPa WSW 4.7 km/h 9.7 km/h 60% 0.0 mm 250 W/m2
16:18 21.5 °C 13.1 °C 1016.3 hPa WNW 6.4 km/h 9.7 km/h 59% 0.0 mm 951 W/m2
16:23 21.8 °C 13.7 °C 1016.6 hPa WNW 14.3 km/h 16.1 km/h 60% 0.0 mm 944 W/m2
16:28 21.6 °C 13.5 °C 1016.6 hPa West 9.7 km/h 14.5 km/h 60% 0.0 mm 213 W/m2
16:33 21.1 °C 13.8 °C 1016.6 hPa West 4.7 km/h 11.3 km/h 63% 0.0 mm 253 W/m2
16:38 20.9 °C 13.3 °C 1016.6 hPa WSW 16.3 km/h 17.7 km/h 62% 0.0 mm 373 W/m2
16:43 21.2 °C 13.4 °C 1016.6 hPa WNW 17.7 km/h 20.9 km/h 61% 0.0 mm 986 W/m2
16:48 21.5 °C 13.1 °C 1016.6 hPa WSW 14.3 km/h 19.3 km/h 59% 0.0 mm 410 W/m2
16:53 21.5 °C 13.1 °C 1016.6 hPa WNW 13 km/h 20.9 km/h 59% 0.0 mm 856 W/m2
16:58 21.5 °C 12.6 °C 1016.6 hPa NNW 6.4 km/h 16.1 km/h 57% 0.0 mm 234 W/m2
17:03 21.7 °C 12.8 °C 1016.6 hPa WNW 7.9 km/h 19.3 km/h 57% 0.0 mm 731 W/m2
17:08 21.9 °C 12.5 °C 1016.6 hPa West 11.1 km/h 12.9 km/h 55% 0.0 mm 687 W/m2
17:13 22.1 °C 12.1 °C 1016.6 hPa West 1.4 km/h 12.9 km/h 53% 0.0 mm 668 W/m2
17:18 22.2 °C 12.7 °C 1016.6 hPa WNW 13 km/h 14.5 km/h 55% 0.0 mm 635 W/m2
17:23 22.3 °C 12.8 °C 1016.6 hPa NW 6.4 km/h 14.5 km/h 55% 0.0 mm 703 W/m2
17:28 22.2 °C 13 °C 1016.6 hPa WSW 4.7 km/h 14.5 km/h 56% 0.0 mm 724 W/m2
17:33 22.2 °C 12.2 °C 1016.6 hPa SW 11.1 km/h 24.1 km/h 53% 0.0 mm 679 W/m2
17:38 22.1 °C 11.8 °C 1016.6 hPa WSW 17.7 km/h 17.7 km/h 52% 0.0 mm 628 W/m2
17:43 22 °C 11.7 °C 1016.6 hPa WSW 14.3 km/h 20.9 km/h 52% 0.0 mm 635 W/m2
17:53 21.6 °C 11 °C 1016.6 hPa WNW 9.7 km/h 22.5 km/h 51% 0.0 mm 313 W/m2
17:58 21.4 °C 11.4 °C 1016.9 hPa WNW 11.1 km/h 14.5 km/h 53% 0.0 mm 596 W/m2
18:04 21.6 °C 12.2 °C 1016.6 hPa WSW 14.3 km/h 14.5 km/h 55% 0.0 mm 587 W/m2
18:09 21.7 °C 12 °C 1016.6 hPa WNW 13 km/h 12.9 km/h 54% 0.0 mm 541 W/m2
18:14 21.8 °C 12.1 °C 1016.6 hPa West 11.1 km/h 16.1 km/h 54% 0.0 mm 503 W/m2
18:19 21.9 °C 12.5 °C 1016.6 hPa NW 14.3 km/h 14.5 km/h 55% 0.0 mm 464 W/m2
18:24 21.9 °C 12.2 °C 1016.6 hPa West 9.7 km/h 16.1 km/h 54% 0.0 mm 336 W/m2
18:29 21.7 °C 12.3 °C 1016.6 hPa WNW 4.7 km/h 11.3 km/h 55% 0.0 mm 381 W/m2
18:34 21.8 °C 12.4 °C 1016.6 hPa WSW 4.7 km/h 16.1 km/h 55% 0.0 mm 352 W/m2
18:39 22 °C 12.5 °C 1016.6 hPa NW 4.7 km/h 4.8 km/h 55% 0.0 mm 330 W/m2
18:44 22.1 °C 12.4 °C 1016.6 hPa NNW 4.7 km/h 6.4 km/h 54% 0.0 mm 309 W/m2
18:49 22 °C 12.3 °C 1016.6 hPa WSW 3.2 km/h 9.7 km/h 54% 0.0 mm 283 W/m2
18:54 22.1 °C 12.6 °C 1016.6 hPa SSW 3.2 km/h 9.7 km/h 55% 0.0 mm 267 W/m2
18:59 22.2 °C 12.7 °C 1016.6 hPa SSW 4.7 km/h 8 km/h 55% 0.0 mm 265 W/m2
19:04 22 °C 12.5 °C 1016.6 hPa WNW 11.1 km/h 11.3 km/h 55% 0.0 mm 283 W/m2
19:09 22 °C 12.5 °C 1016.6 hPa West 4.7 km/h 9.7 km/h 55% 0.0 mm 299 W/m2
19:14 22.2 °C 12.7 °C 1016.6 hPa WNW 4.7 km/h 11.3 km/h 55% 0.0 mm 318 W/m2
19:19 22.3 °C 12.8 °C 1016.6 hPa WNW 4.7 km/h 9.7 km/h 55% 0.0 mm 320 W/m2
19:24 22.4 °C 12.6 °C 1016.6 hPa WNW 6.4 km/h 8 km/h 54% 0.0 mm 311 W/m2
19:29 22.3 °C 12.5 °C 1016.6 hPa WNW 4.7 km/h 12.9 km/h 54% 0.0 mm 290 W/m2
19:34 22.2 °C 12.4 °C 1016.6 hPa WNW 3.2 km/h 12.9 km/h 54% 0.0 mm 255 W/m2
19:39 22.2 °C 12.4 °C 1016.6 hPa NNW 4.7 km/h 11.3 km/h 54% 0.0 mm 204 W/m2
19:44 22.1 °C 12.4 °C 1016.6 hPa NW 1.4 km/h 8 km/h 54% 0.0 mm 181 W/m2
19:49 22.2 °C 12.4 °C 1016.6 hPa WSW 4.7 km/h 6.4 km/h 54% 0.0 mm 176 W/m2
19:54 22.2 °C 12.7 °C 1016.6 hPa WSW 4.7 km/h 4.8 km/h 55% 0.0 mm 181 W/m2
19:59 22.2 °C 12.7 °C 1016.9 hPa West 3.2 km/h 6.4 km/h 55% 0.0 mm 178 W/m2
20:04 22.1 °C 12.6 °C 1016.6 hPa NW 3.2 km/h 9.7 km/h 55% 0.0 mm 165 W/m2
20:09 21.7 °C 12.5 °C 1016.9 hPa West 4.7 km/h 11.3 km/h 56% 0.0 mm 47 W/m2
20:14 21.4 °C 12.5 °C 1016.9 hPa West 3.2 km/h 11.3 km/h 57% 0.0 mm 127 W/m2
20:19 21.3 °C 12.4 °C 1016.9 hPa West 4.7 km/h 6.4 km/h 57% 0.0 mm 74 W/m2
20:24 21.3 °C 12.4 °C 1016.9 hPa WNW 4.7 km/h 6.4 km/h 57% 0.0 mm 121 W/m2
20:29 21.4 °C 12.8 °C 1016.9 hPa SW 1.4 km/h 6.4 km/h 58% 0.0 mm 113 W/m2
20:34 21.5 °C 12.6 °C 1016.9 hPa WNW 4.7 km/h 6.4 km/h 57% 0.0 mm 100 W/m2
20:39 21.5 °C 12.6 °C 1016.9 hPa WNW 6.4 km/h 11.3 km/h 57% 0.0 mm 104 W/m2
20:44 21.5 °C 12.6 °C 1016.9 hPa WNW 4.7 km/h 9.7 km/h 57% 0.0 mm 100 W/m2
20:49 21.3 °C 12.7 °C 1016.9 hPa SW 4.7 km/h 6.4 km/h 58% 0.0 mm 86 W/m2
20:54 21.2 °C 12.6 °C 1016.9 hPa NW 4.7 km/h 4.8 km/h 58% 0.0 mm 39 W/m2
20:59 21.1 °C 13.3 °C 1016.9 hPa Calm     61% 0.0 mm 54 W/m2
21:04 21.1 °C 13.3 °C 1017.3 hPa SW 1.4 km/h 1.6 km/h 61% 0.0 mm 42 W/m2
21:10 21.1 °C 13.3 °C 1017.3 hPa Calm   1.6 km/h 61% 0.0 mm 32 W/m2
21:15 20.9 °C 13.3 °C 1017.3 hPa Calm   1.6 km/h 62% 0.0 mm 21 W/m2
21:20 20.6 °C 13.6 °C 1017.3 hPa West 1.4 km/h 1.6 km/h 64% 0.0 mm 18 W/m2
21:25 20.2 °C 13.2 °C 1017.3 hPa Calm   1.6 km/h 64% 0.0 mm 12 W/m2
21:30 19.8 °C 12.8 °C 1017.3 hPa WSW 1.4 km/h 3.2 km/h 64% 0.0 mm 11 W/m2
21:35 19.6 °C 12.8 °C 1017.6 hPa WSW 1.4 km/h 4.8 km/h 65% 0.0 mm 7 W/m2
21:40 19.3 °C 12.8 °C 1017.6 hPa WSW 1.4 km/h 3.2 km/h 66% 0.0 mm 5 W/m2
21:45 19.1 °C 12.6 °C 1017.6 hPa West 3.2 km/h 4.8 km/h 66% 0.0 mm 0 W/m2
21:50 18.8 °C 12.3 °C 1017.6 hPa West 1.4 km/h 1.6 km/h 66% 0.0 mm 0 W/m2
21:55 18.7 °C 12.2 °C 1017.6 hPa SW 1.4 km/h 4.8 km/h 66% 0.0 mm 0 W/m2
22:00 18.6 °C 11.9 °C 1018.0 hPa WSW 3.2 km/h 4.8 km/h 65% 0.0 mm 0 W/m2
22:05 18.4 °C 11.5 °C 1018.0 hPa West 3.2 km/h 9.7 km/h 64% 0.0 mm 0 W/m2
22:10 18.4 °C 11.5 °C 1018.0 hPa West 3.2 km/h 4.8 km/h 64% 0.0 mm 0 W/m2
22:15 18.3 °C 11.1 °C 1018.0 hPa West 1.4 km/h 9.7 km/h 63% 0.0 mm 0 W/m2
22:20 18.2 °C 10.8 °C 1018.0 hPa West 4.7 km/h 11.3 km/h 62% 0.0 mm 0 W/m2
22:25 18.2 °C 11 °C 1018.0 hPa West 3.2 km/h 4.8 km/h 63% 0.0 mm 0 W/m2
22:30 18.2 °C 10.8 °C 1018.0 hPa West 3.2 km/h 6.4 km/h 62% 0.0 mm 0 W/m2
22:35 18.2 °C 10.8 °C 1018.3 hPa West 3.2 km/h 4.8 km/h 62% 0.0 mm 0 W/m2
22:40 18.1 °C 10.7 °C 1018.3 hPa WSW 3.2 km/h 4.8 km/h 62% 0.0 mm 0 W/m2
22:50 18 °C 10.6 °C 1018.3 hPa West 4.7 km/h 9.7 km/h 62% 0.0 mm 0 W/m2
22:55 17.9 °C 10.8 °C 1018.3 hPa Calm   4.8 km/h 63% 0.0 mm 0 W/m2
23:00 17.8 °C 10.9 °C 1018.3 hPa West 4.7 km/h 8 km/h 64% 0.0 mm 0 W/m2
23:06 17.8 °C 10.7 °C 1018.3 hPa WSW 4.7 km/h 4.8 km/h 63% 0.0 mm 0 W/m2
23:11 17.8 °C 10.4 °C 1018.6 hPa West 3.2 km/h 9.7 km/h 62% 0.0 mm 0 W/m2
23:16 17.8 °C 10.7 °C 1018.6 hPa West 3.2 km/h 4.8 km/h 63% 0.0 mm 0 W/m2
23:21 17.8 °C 10.7 °C 1018.6 hPa West 6.4 km/h 9.7 km/h 63% 0.0 mm 0 W/m2
23:26 17.8 °C 10.7 °C 1018.6 hPa West 4.7 km/h 8 km/h 63% 0.0 mm 0 W/m2
23:31 17.7 °C 11 °C 1018.6 hPa NW 4.7 km/h 4.8 km/h 65% 0.0 mm 0 W/m2
23:36 17.3 °C 11.6 °C 1018.6 hPa NW 1.4 km/h 4.8 km/h 69% 0.0 mm 0 W/m2
23:41 16.8 °C 11.3 °C 1018.6 hPa NW 1.4 km/h 3.2 km/h 70% 0.0 mm 0 W/m2
23:46 16.6 °C 11.3 °C 1018.6 hPa WNW 1.4 km/h 3.2 km/h 71% 0.0 mm 0 W/m2
23:51 16.3 °C 11.2 °C 1018.6 hPa WNW 1.4 km/h 3.2 km/h 72% 0.0 mm 0 W/m2
23:56 16.1 °C 11.3 °C 1018.6 hPa West 3.2 km/h 4.8 km/h 73% 0.0 mm 0 W/m2
Juneau County Weather
Compliments of Weather Underground - 4 mb